Location: Camp Cheerful - Strongsville
(41.3172°N, 81.8018°W)
Time: 22:59:47
(UTC-04:00)

ISS - Visible Passes

Search period start: 19 July 2018 00:00
Search period end: 29 July 2018 00:00
Orbit: 402 x 408 km, 51.6° (Epoch: 20 July)

Date Brightness Start Highest point End Pass type
(mag) Time Alt. Az. Time Alt. Az. Time Alt. Az.
19 Jul -2.0 00:07:06 30° NW 00:07:35 32° NNW 00:10:35 10° NE visible
19 Jul -0.5 01:42:56 10° NW 01:44:50 14° N 01:46:43 10° NNE visible
19 Jul -0.8 03:20:01 10° NNW 03:22:18 17° NNE 03:24:37 10° ENE visible
19 Jul -3.3 04:56:02 10° NW 04:59:19 63° NNE 05:02:34 10° ESE visible
19 Jul -2.3 21:36:52 10° S 21:39:11 18° SE 21:41:29 10° E visible
19 Jul -3.0 23:12:12 10° WSW 23:15:24 52° NNW 23:18:37 10° NE visible
20 Jul -0.7 00:50:17 10° NW 00:52:27 16° NNW 00:54:39 10° NNE visible
20 Jul -0.5 02:27:58 10° NNW 02:29:57 15° N 02:31:55 10° NE visible
20 Jul -2.2 04:04:03 10° NW 04:07:09 37° NNE 04:10:14 10° E visible
20 Jul -3.9 22:20:01 10° SW 22:23:17 85° SE 22:26:34 10° NE visible
20 Jul -1.1 23:57:35 10° WNW 00:00:07 20° NNW 00:02:40 10° NNE visible
21 Jul -0.5 01:35:45 10° NNW 01:37:32 14° N 01:39:20 10° NE visible
21 Jul -1.4 03:12:06 10° NW 03:14:53 25° NNE 03:17:42 10° E visible
21 Jul -3.8 04:48:20 10° WNW 04:51:34 54° SW 04:54:47 10° SE visible
21 Jul -3.5 21:28:07 10° SSW 21:31:14 43° SE 21:34:21 10° ENE visible
21 Jul -1.6 23:04:56 10° W 23:07:49 28° NNW 23:10:42 10° NE visible
22 Jul -0.5 00:43:18 10° NW 00:45:07 14° N 00:46:56 10° NNE visible
22 Jul -1.0 02:20:08 10° NNW 02:22:34 19° NNE 02:25:01 10° ENE visible
22 Jul -3.8 03:56:11 10° NW 03:59:29 79° NE 04:02:46 10° ESE visible
22 Jul -1.8 05:34:17 10° WSW 05:35:32 12° SW 05:36:47 10° SSW visible
22 Jul -2.5 22:12:26 10° WSW 22:15:34 42° NNW 22:18:43 10° NE visible
22 Jul -0.6 23:50:39 10° NW 23:52:42 15° N 23:54:45 10° NNE visible
23 Jul -0.7 01:28:06 10° NNW 01:30:11 16° N 01:30:54 15° NNE visible
23 Jul -3.6 21:20:08 10° WSW 21:23:23 76° NW 21:26:40 10° NE visible
23 Jul -0.9 22:57:53 10° WNW 23:00:18 19° NNW 23:02:43 10° NNE visible
24 Jul -0.6 00:35:56 10° NNW 00:37:45 14° N 00:39:30 10° NE visible
24 Jul -1.3 22:05:11 10° W 22:07:56 24° NNW 22:10:42 10° NE visible
24 Jul -0.6 23:43:32 10° NW 23:45:18 14° N 23:47:04 10° NNE visible
25 Jul -0.7 01:20:08 10° NNW 01:21:11 15° NNW 01:21:11 15° NNW visible
25 Jul -0.7 22:50:53 10° NW 22:52:50 15° N 22:54:46 10° NNE visible
26 Jul -1.0 00:28:06 10° NNW 00:30:18 16° NNE 00:30:26 16° NNE visible
26 Jul -0.9 21:58:07 10° WNW 22:00:23 17° NNW 22:02:39 10° NNE visible
26 Jul -0.8 23:35:57 10° NNW 23:37:51 14° N 23:39:45 10° NE visible
27 Jul -0.5 01:12:04 10° NW 01:12:23 12° NW 01:12:23 12° NW visible
27 Jul -0.8 22:43:36 10° NNW 22:45:21 14° N 22:47:06 10° NNE visible
28 Jul -1.1 00:20:02 10° NW 00:21:46 20° N 00:21:46 20° N visible
28 Jul -0.9 21:51:00 10° NW 21:52:51 14° N 21:54:42 10° NNE visible
28 Jul -1.3 23:27:59 10° NNW 23:30:19 18° NNE 23:31:11 16° NE visible
